Weather in Yanyshi

Russia / Chuvash Republic     55°55′34″N   46°57′28″E
temp.,
°C
wind,
m/s
gust,
m/s
humid.,
%
clouds,
%
prec.,
mm/h
press.,
hPa
HPBL,
m
11 may, tue
tue1100:00+10n61196100 0.2 1024238
03:00+9nne51197100 0.2 1024259
06:00+10ne599588 0.0 1025249
09:00+15ne5779100 0.0 1026461
12:00+20ene4562100 0.0 1026838
15:00+22ene4555100 0.0 10261273
18:00+20ne3670100 0.2 1026123
21:00+16ne3888100 0.2 1027132
12 may, wed
wed1200:00+14ene3793100 0.8 1027124
03:00+13ne36935 0.8 1027105
06:00+15ene368723 0.0 1027146
09:00+20ese58595 0.0 1027578
12:00+23ese56515 0.0 10271304
15:00+22sse465880 0.0 1026838
18:00+19s246769 0.1 102799
21:00+16se2268100 0.1 102716
13 may, thu
thu1300:00+14se226180 0.0 102725
03:00+15se2362100 0.0 102645
06:00+15ese367096 0.0 1026168
09:00+18ese496648 0.0 1026436
12:00+22se7104874 0.0 10241256
15:00+20sse61159100 0.0 1024713
18:00+18se51269100 0.0 1023370
21:00+16ese5137069 0.0 1022261
14 may, fri
fri1400:00+15se41182100 0.1 1022215
03:00+13se378296 0.3 1022129
06:00+15se387711 0.0 1022241
09:00+20s455952 0.0 1021521
12:00+23ssw4554100 0.0 1021942
15:00+25ssw465081 0.0 10211440
18:00+23w1167100 0.1 102012
21:00+18sse227887 0.1 101918
15 may, sat
sat1500:00+16s387629 0.0 1019122
03:00+15s410765 0.0 1019161
06:00+17sse410725 0.0 1019224
09:00+22s610545 0.0 1018449
12:00+27s611405 0.0 10171291
15:00+27s510435 0.0 10161649
18:00+22sse512575 0.0 1016326
21:00+18s5146330 0.0 1016251